Regional Weather Roundup
Issued by NWS

Home | Current Version | Previous Version | Text Only | Print | Product List | Glossary On
Versions: 1 2 3 4 5 6 7 8 9 10 11 12 13 14 15 16 17 18 19 20 21 22 23 24 25 26 27 28 29 30 31 32 33 34 35 36 37 38 39 40 41 42 43 44 45 46 47 48 49 50
000
ASCA44 KEWX 021720
RWRMX

LATIN AMERICA AND CARIBBEAN REGIONAL WEATHER ROUNDUP
NATIONAL WEATHER SERVICE AUSTIN/SAN ANTONIO TX
1200 PM CDT TUE JUN 02 2015

NOTE: "FAIR" INDICATED FEW OR NO CLOUDS BELOW 12,000 FEET WITH NO
SIGNIFICANT WEATHER AND/OR OBSTRUCTIONS TO VISIBILITY.

BAJA CALIFORNIA

CITY           SKY/WX    TMP DP  RH WIND       PRES   REMARKS
LORETO         SUNNY     91  66  43 NE7       29.85F HX  94
LA PAZ         MOSUNNY   93  48  21 SW5       29.88F HX  90
MEXICALI       SUNNY     90  28  11 W14       29.86F
S.J. DEL CABO  PTSUNNY   90  55  31 CALM      29.90R
TIJUANA        SUNNY     68  52  56 N3        30.03F

NORTHWESTERN MEXICO

CITY           SKY/WX    TMP DP  RH WIND       PRES   REMARKS
CULIACAN       MOSUNNY   91  68  46 S6        29.90F HX  95
DURANGO        PTSUNNY   75  32  20 NW3       30.27F
GUAYMAS        SUNNY     91  72  52 CALM      29.83S HX  98
HERMOSILLO     SUNNY    100  43  14 CALM      29.91F HX  96
CD. JUAREZ     MOSUNNY   90  37  15 CALM      30.02S
LOS MOCHIS     SUNNY     90  66  45 E6        29.88F HX  92
OBREGON        SUNNY     91  57  31 S5        29.86S HX  90

NORTHEASTERN MEXICO

CITY           SKY/WX    TMP DP  RH WIND       PRES   REMARKS
CHIHUAHUA      MOSUNNY   86  43  22 NE7       30.13F
MATAMOROS      PTSUNNY   86  75  70 E7        30.02S HX  95
MONCLOVA       SUNNY     81  50  34 CALM      30.03
MONTERREY      PTSUNNY   79  66  65 SE9       30.05R
NUEVO LAREDO   MOSUNNY   86  68  54 S8        30.03S
PIEDRAS NEGRAS MOSUNNY   88  72  58 SE9       30.04S HX  94
REYNOSA        PTSUNNY   82  68  61 SE13      30.00F
SALTILLO       SUNNY     79  61  53 CALM      30.22S
TORREON        MOSUNNY   84  50  30 NE5       30.13F
CD. VICTORIA   SUNNY     84  64  51 SE12      30.00F

WESTERN MEXICO

CITY           SKY/WX    TMP DP  RH WIND       PRES   REMARKS
AGUASCALIENTES MOSUNNY   70  39  32 CALM      30.29F
COLIMA         MOSUNNY   82  70  65 CALM      30.01F
DEL BAJIO      PTSUNNY   73  48  40 S12       30.32F
GUADALAJARA    PTSUNNY   75  55  50 CALM      30.20F
MANZANILLO     MOSUNNY   93  81  66 S9        29.87R HX 113
MAZATLAN       CLOUDY    84  70  61 S8        29.89S
P. VALLARTA    PTSUNNY   86  77  74 SW6       29.89F HX  97
URUAPAN        CLOUDY    73  59  60 CALM      30.18F
ZACATECAS      PTSUNNY   81  45  28 CALM      30.31F

CENTRAL MEXICO

CITY           SKY/WX    TMP DP  RH WIND       PRES   REMARKS
CUERNAVACA     PTSUNNY   75  57  53 CALM      30.16F
MEXICO CITY    MOSUNNY   68  50  52 VRB3      30.33F
MORELIA        MOSUNNY   72  55  56 CALM      30.25F
POZA RICA      SUNNY     88  68  51 N5        30.03F HX  91
PUEBLA         MOSUNNY   66  52  59 NE5       30.33F
QUERETARO      MOSUNNY   70  52  52 NE8       30.32F
S. LUIS POTOSI MOSUNNY   68  46  45 SE3       30.27F
TAMPICO        MOSUNNY   82  72  69 NE7       30.00F
TOLUCA         PTSUNNY   64  45  48 NW5       30.39F

SOUTHERN MEXICO

CITY           SKY/WX    TMP DP  RH WIND       PRES   REMARKS
ACAPULCO       CLOUDY    86  72  62 W5        29.88S HX  92
B. DE HUATULCO CLOUDY    88  73  62 W6        29.91F HX  96
OAXACA         CLOUDY    72  55  56 CALM      30.25F
P. ESCONDIDO     N/A    N/A N/A N/A MISG        N/A
VERACRUZ       MOSUNNY   86  68  54 E5        29.99F
ZIHUATANEJO    MOSUNNY   93  72  49 S6        29.87F HX 100

YUCATAN PENINSULA

CITY           SKY/WX    TMP DP  RH WIND       PRES   REMARKS
CAMPECHE       PTSUNNY   82  73  74 E8        29.95F
CANCUN         PTSUNNY   82  72  69 E9        29.97F
CHETUMAL       PTSUNNY   81  73  78 N12       29.93F
CD. DEL CARMEN PTSUNNY   81  72  74 E5        29.97S
COZUMEL        CLOUDY    79  72  78 CALM      29.97F
MERIDA         PTSUNNY   90  70  51 N6        29.96F HX  95
MINATITLAN     CLOUDY    82  73  74 CALM      29.95S
TAPACHULA      PTSUNNY   90  75  62 W7        29.84F HX 100
TUX. GUTIERREZ CLOUDY    81  64  57 CALM      29.99F
VILLAHERMOSA   CLOUDY    82  73  74 NW5       29.99F

CENTRAL AMERICA

CITY           SKY/WX    TMP DP  RH WIND       PRES   REMARKS
BELIZE CITY    LGT RAIN  81  77  89 N9        29.90F
MANAGUA        MOSUNNY   91  72  52 E9        29.80F HX  98

CARIBBEAN

CITY           SKY/WX    TMP DP  RH WIND       PRES   REMARKS
ARUBA          MOSUNNY   90  77  66 E28       29.83F HX 102
CURACAO        MOSUNNY   88  75  66 E17       29.89F HX  97
KINGSTON       PTSUNNY   86  77  74 SE24      29.89F HX  97
NASSAU         PTSUNNY   82  72  69 NE10      30.02F
SAN JUAN       LGT RAIN  81  79  94 VRB3      29.99F
SANTO DOMINGO  MOSUNNY   88  75  66 S14       29.97S HX  97
ST. CROIX      PTSUNNY   82  72  69 SE9       30.02
ST. KITTS      MOSUNNY   88  72  58 E14       30.00S HX  94
ST. MAARTEN    MOSUNNY   84  73  70 SE9       30.00S HX  91
ST. THOMAS     MOSUNNY   84  73  70 SE13      30.00  HX  91

$$



USA.gov is the U.S. government's official web portal to all federal, state and local government web resources and services.